Location: Carrières
(48.9495°N, 2.0407°E)
Time: 04:22:25
(UTC+00:00)

Altair - Visible Passes

Search period start: 22 April 2024 00:00
Search period end: 02 May 2024 00:00
Orbit: 1502 x 1682 km, 47.2° (Epoch: 21 April)

Date Brightness Start Highest point End Pass type
(mag) Time Alt. Az. Time Alt. Az. Time Alt. Az.
22 Apr 8.6 01:20:49 10° W 01:25:01 22° WSW 01:25:01 22° WSW visible
22 Apr 7.5 20:45:18 10° W 20:55:19 82° S 21:04:43 11° E visible
22 Apr 7.4 22:50:12 10° W 22:59:53 65° SSW 23:02:41 48° SE visible
23 Apr 8.4 00:55:27 10° W 01:00:40 26° WSW 01:00:40 26° WSW visible
23 Apr 7.6 20:20:03 10° W 20:30:06 82° S 20:39:46 10° E visible
23 Apr 7.4 22:24:57 10° W 22:34:42 68° SSW 22:38:23 41° SE visible
24 Apr 8.3 00:30:07 10° W 00:36:22 30° WSW 00:36:22 30° WSW visible
24 Apr 7.6 19:54:47 10° W 20:04:52 81° S 20:14:34 10° E visible
24 Apr 7.5 21:59:41 10° W 22:09:31 70° SSW 22:14:08 35° SE visible
25 Apr 8.1 00:04:47 10° WNW 00:12:06 34° SW 00:12:06 34° SW visible
25 Apr 7.7 19:29:32 10° WSW 19:39:38 81° S 19:49:22 10° E visible
25 Apr 7.5 21:34:26 10° W 21:44:19 72° SSW 21:49:54 29° ESE visible
25 Apr 8.0 23:39:29 10° WNW 23:47:53 37° SW 23:47:53 37° SW visible
26 Apr 7.5 21:09:10 10° W 21:19:07 74° SSW 21:25:42 23° ESE visible
26 Apr 7.9 23:14:11 10° WNW 23:23:00 40° SW 23:23:41 39° SSW visible
27 Apr 7.6 20:43:54 10° W 20:53:54 76° SSW 21:01:32 18° ESE visible
27 Apr 7.8 22:48:53 10° WNW 22:57:53 43° SW 22:59:32 40° SSW visible
28 Apr 9.2 00:56:35 10° W 00:57:31 11° WSW 00:57:31 11° WSW visible
28 Apr 7.6 20:18:39 10° W 20:28:41 77° SSW 20:37:24 14° ESE visible
28 Apr 7.8 22:23:36 10° WNW 22:32:46 45° SW 22:35:24 38° S visible
29 Apr 9.1 00:30:41 10° W 00:33:23 14° WSW 00:33:23 14° WSW visible
29 Apr 7.7 19:53:23 10° W 20:03:27 79° S 20:13:09 10° ESE visible
29 Apr 7.9 21:58:20 10° WNW 22:07:38 48° SW 22:11:18 34° SSE visible
30 Apr 8.9 00:04:58 10° W 00:09:17 16° WSW 00:09:17 16° WSW visible
30 Apr 7.7 19:28:07 10° W 19:38:14 80° S 19:47:58 10° ESE visible
30 Apr 7.8 21:33:02 10° WNW 21:42:29 51° SSW 21:47:13 30° SSE visible
30 Apr 8.8 23:39:21 10° W 23:45:13 19° SW 23:45:13 19° SW visible
01 May 7.8 21:07:46 10° WNW 21:17:20 53° SSW 21:23:10 25° SSE visible
01 May 8.7 23:13:48 10° W 23:20:21 21° SW 23:21:10 20° SW visible
